sat.trackr.live / text

‹ back to catalog

STARLINK-36770

NORAD 67870 · 2026-034W

PAYLOAD ACTIVE UNKNOWN

§ Identity

Operator
Country
US
Launch date
2026-02-20
Launch site
AFETR
Launch vehicle
Mass (kg)
RCS (m²)

Purposes: comms

External: N2YO · Heavens-Above · Gunter

§ Orbital elements

Epoch: 2026-05-24T21:18:55.074816Z

Period
94.10 min
Inclination
53.1574°
Eccentricity
0.0001158
Mean motion
15.30213394 rev/d
Perigee alt
474.4 km
Apogee alt
476.0 km
Semi-major
6,853.3 km
B*
5.2873e-4
RAAN
210.1883°
Arg perigee
90.1783°
Mean anomaly
269.9350°
Rev number
1,570

§ Raw data

STARLINK-367701 67870U 26034W   26144.88813744  .00015339  00000+0  52873-3 0  99912 67870  53.1574 210.1883 0001158  90.1783 269.9350 15.30213394 15709

JSON: /api/v1/satellites/67870 · /tle

For live sub-satellite position, see the globe view (requires WebGL).

§ Visibility from observer

Set your observer location to see the next 7 days of passes ≥ 10°. The values pass through the URL so the page stays shareable.

No JS? Fill the form by hand. The geolocation button needs JavaScript.